WXM80 ListenWXM80 Stop

You find our weather info also at:

UK Metoffice

WeatherCloud

Weather Underground

Northeastern Weather Network

AWEKAS

Citizen Weather Observer Program (CWOP)

HAMweather, WeatherForYou, PWS Weather


Weather Underground History page Text

Daily Summary for April 28, 2016 Units:  English    Metric   Both
« Previous Day
Next Day »
Daily Weekly Monthly Yearly Custom
  High: Low: Average:
Temperature: 59.8 °F 45.9 °F 51.8 °F
Dew Point: 46.9 °F 27.4 °F 35.6 °F
Humidity: 90 % 29 % 56 %
Wind Speed: 7.5 mph 0.0 mph 2.4 mph
Wind Gust: 13.8 mph - -
Wind:- - SE
Pressure: 30.06 in 29.88 in -
Precipitation: 0.00 in    
Historical Graphs
 
 
Tabular Data for April 28, 2016
Time Temperature Dew Point Pressure Wind Wind Speed Wind Gust Humidity Rainfall Rate (Hourly)
00:02 49.7 °F 46.0 °F 29.88 in SSW 3.4 mph 4.0 mph 87 % 0.00 in
00:07 49.7 °F 46.0 °F 29.89 in SW 2.3 mph 4.6 mph 87 % 0.00 in
00:12 49.8 °F 46.1 °F 29.89 in SW 2.2 mph 4.0 mph 87 % 0.00 in
00:17 49.8 °F 46.1 °F 29.89 in SSW 2.5 mph 3.5 mph 87 % 0.00 in
00:22 49.9 °F 46.2 °F 29.89 in SSW 2.1 mph 4.6 mph 87 % 0.00 in
00:27 49.9 °F 46.2 °F 29.89 in SW 3.8 mph 5.8 mph 87 % 0.00 in
00:32 49.9 °F 46.2 °F 29.90 in SSW 1.7 mph 3.5 mph 87 % 0.00 in
00:37 49.9 °F 46.2 °F 29.90 in SW 1.7 mph 3.5 mph 87 % 0.00 in
00:43 49.9 °F 46.2 °F 29.90 in SW 1.8 mph 4.6 mph 87 % 0.00 in
00:48 49.9 °F 46.2 °F 29.90 in SW 2.6 mph 3.5 mph 87 % 0.00 in
00:53 49.9 °F 46.2 °F 29.90 in SSW 2.0 mph 4.6 mph 87 % 0.00 in
01:03 49.8 °F 46.1 °F 29.90 in SW 0.7 mph 2.3 mph 87 % 0.00 in
01:08 49.8 °F 46.1 °F 29.90 in SW 2.3 mph 3.5 mph 87 % 0.00 in
01:13 49.7 °F 46.0 °F 29.90 in WSW 2.8 mph 4.0 mph 87 % 0.00 in
01:18 49.7 °F 46.3 °F 29.89 in WSW 0.5 mph 2.3 mph 88 % 0.00 in
01:23 49.7 °F 46.3 °F 29.89 in West 0.1 mph 1.2 mph 88 % 0.00 in
01:28 49.7 °F 46.3 °F 29.90 in Calm     88 % 0.00 in
01:39 49.7 °F 46.3 °F 29.90 in NNW 2.0 mph 3.5 mph 88 % 0.00 in
01:44 49.7 °F 46.6 °F 29.90 in NNW 1.3 mph 4.0 mph 89 % 0.00 in
01:49 49.7 °F 46.6 °F 29.90 in NNW 2.1 mph 4.0 mph 89 % 0.00 in
01:54 49.7 °F 46.9 °F 29.90 in NNW 1.3 mph 2.3 mph 90 % 0.00 in
01:59 49.7 °F 46.9 °F 29.90 in NNW 0.3 mph 1.2 mph 90 % 0.00 in
02:04 49.6 °F 46.8 °F 29.90 in NNW 0.4 mph 1.0 mph 90 % 0.00 in
02:09 49.6 °F 46.8 °F 29.90 in NNW 0.9 mph 3.5 mph 90 % 0.00 in
02:14 49.5 °F 46.7 °F 29.90 in NNW 0.3 mph 1.2 mph 90 % 0.00 in
02:19 49.4 °F 46.6 °F 29.90 in NNW 0.3 mph 1.2 mph 90 % 0.00 in
02:25 49.3 °F 46.5 °F 29.90 in NNW 0.9 mph 2.3 mph 90 % 0.00 in
02:30 49.2 °F 46.1 °F 29.90 in NNW 2.1 mph 3.5 mph 89 % 0.00 in
02:35 49.0 °F 45.6 °F 29.90 in NNE 4.1 mph 4.6 mph 88 % 0.00 in
02:40 48.7 °F 45.0 °F 29.91 in North 2.3 mph 3.5 mph 87 % 0.00 in
02:45 48.5 °F 44.5 °F 29.91 in NNE 4.5 mph 7.0 mph 86 % 0.00 in
02:50 48.3 °F 43.7 °F 29.91 in NNE 3.9 mph 6.9 mph 84 % 0.00 in
02:55 48.1 °F 41.9 °F 29.92 in NE 5.8 mph 8.1 mph 79 % 0.00 in
03:00 47.9 °F 40.0 °F 29.92 in North 5.7 mph 9.2 mph 74 % 0.00 in
03:05 47.9 °F 38.2 °F 29.92 in NNE 6.7 mph 11.5 mph 69 % 0.00 in
03:10 47.9 °F 38.2 °F 29.92 in North 5.6 mph 5.8 mph 69 % 0.00 in
03:16 47.9 °F 37.8 °F 29.92 in NNE 4.8 mph 6.9 mph 68 % 0.00 in
03:21 47.9 °F 37.8 °F 29.92 in NNE 3.6 mph 8.1 mph 68 % 0.00 in
03:26 47.9 °F 37.8 °F 29.93 in NNE 2.5 mph 4.6 mph 68 % 0.00 in
03:31 47.8 °F 38.1 °F 29.93 in NNE 0.5 mph 2.3 mph 69 % 0.00 in
03:36 47.8 °F 38.1 °F 29.93 in Calm   1.2 mph 69 % 0.00 in
03:41 47.7 °F 38.0 °F 29.93 in Calm     69 % 0.00 in
03:46 47.6 °F 37.9 °F 29.93 in Calm   3.5 mph 69 % 0.00 in
03:51 47.5 °F 37.5 °F 29.93 in NE 1.9 mph 3.5 mph 68 % 0.00 in
03:56 47.3 °F 36.1 °F 29.94 in NNE 2.8 mph 5.8 mph 65 % 0.00 in
04:12 46.9 °F 32.4 °F 29.94 in NNE 5.9 mph 10.4 mph 57 % 0.00 in
04:22 47.0 °F 29.8 °F 29.95 in NNE 6.9 mph 11.5 mph 51 % 0.00 in
04:27 47.0 °F 29.8 °F 29.95 in NNE 5.7 mph 9.2 mph 51 % 0.00 in
04:32 47.0 °F 30.7 °F 29.95 in NNE 5.1 mph 8.1 mph 53 % 0.00 in
04:37 46.9 °F 31.1 °F 29.95 in NNE 4.4 mph 7.0 mph 54 % 0.00 in
04:42 46.9 °F 31.6 °F 29.95 in NNE 3.4 mph 4.6 mph 55 % 0.00 in
04:47 46.8 °F 31.0 °F 29.96 in NNE 3.7 mph 4.6 mph 54 % 0.00 in
04:52 46.7 °F 31.4 °F 29.96 in North 1.6 mph 5.0 mph 55 % 0.00 in
04:58 46.6 °F 32.2 °F 29.96 in NE 1.3 mph 3.5 mph 57 % 0.00 in
05:03 46.5 °F 31.6 °F 29.96 in North 1.1 mph 3.5 mph 56 % 0.00 in
05:08 46.4 °F 31.5 °F 29.97 in NNE 3.0 mph 6.9 mph 56 % 0.00 in
05:13 46.3 °F 30.1 °F 29.97 in NNE 3.2 mph 4.6 mph 53 % 0.00 in
05:18 46.3 °F 29.1 °F 29.97 in NNE 5.4 mph 8.1 mph 51 % 0.00 in
05:23 46.3 °F 29.6 °F 29.98 in NNE 3.9 mph 5.8 mph 52 % 0.00 in
05:28 46.3 °F 29.1 °F 29.97 in NNE 5.9 mph 9.2 mph 51 % 0.00 in
05:33 46.3 °F 29.6 °F 29.98 in NE 3.4 mph 9.2 mph 52 % 0.00 in
05:38 46.3 °F 29.6 °F 29.98 in NNE 3.5 mph 10.4 mph 52 % 0.00 in
05:43 46.2 °F 29.5 °F 29.98 in NNE 2.9 mph 5.8 mph 52 % 0.00 in
05:49 46.2 °F 29.5 °F 29.98 in NNE 3.7 mph 9.2 mph 52 % 0.00 in
05:54 46.1 °F 29.0 °F 29.99 in NNE 4.1 mph 6.9 mph 51 % 0.00 in
05:59 46.0 °F 28.4 °F 29.99 in North 5.4 mph 8.1 mph 50 % 0.00 in
06:04 46.0 °F 28.9 °F 29.99 in NE 3.4 mph 8.1 mph 51 % 0.00 in
06:09 46.0 °F 29.3 °F 29.99 in NNE 3.1 mph 3.5 mph 52 % 0.00 in
06:19 45.9 °F 28.8 °F 29.99 in North 5.6 mph 8.1 mph 51 % 0.00 in
06:24 46.0 °F 30.3 °F 30.00 in NNE 4.6 mph 8.1 mph 54 % 0.00 in
06:29 46.2 °F 30.5 °F 30.00 in NNE 4.7 mph 7.0 mph 54 % 0.00 in
06:34 46.6 °F 29.9 °F 30.00 in NNE 2.4 mph 4.6 mph 52 % 0.00 in
06:40 46.9 °F 30.6 °F 30.00 in North 2.1 mph 9.2 mph 53 % 0.00 in
06:45 47.2 °F 30.5 °F 30.00 in NE 2.0 mph 8.1 mph 52 % 0.00 in
06:50 47.5 °F 31.2 °F 30.01 in NNE 1.7 mph 4.6 mph 53 % 0.00 in
06:55 47.7 °F 32.3 °F 30.02 in ENE 2.7 mph 3.5 mph 55 % 0.00 in
07:00 47.8 °F 31.5 °F 30.02 in NNE 3.8 mph 6.9 mph 53 % 0.00 in
07:05 47.8 °F 31.0 °F 30.02 in NNE 3.4 mph 5.8 mph 52 % 0.00 in
07:10 47.8 °F 31.0 °F 30.03 in NNE 4.4 mph 7.0 mph 52 % 0.00 in
07:15 47.9 °F 32.5 °F 30.03 in North 3.4 mph 4.0 mph 55 % 0.00 in
07:20 48.2 °F 32.8 °F 30.03 in NNE 2.9 mph 3.5 mph 55 % 0.00 in
07:25 48.5 °F 32.6 °F 30.04 in NNE 3.8 mph 5.0 mph 54 % 0.00 in
07:31 48.8 °F 32.4 °F 30.03 in North 3.4 mph 6.9 mph 53 % 0.00 in
07:36 49.1 °F 33.6 °F 30.04 in NNE 2.1 mph 4.6 mph 55 % 0.00 in
07:41 49.4 °F 33.0 °F 30.04 in North 3.5 mph 4.6 mph 53 % 0.00 in
07:46 49.6 °F 32.2 °F 30.04 in NE 4.1 mph 6.9 mph 51 % 0.00 in
07:51 49.9 °F 32.0 °F 30.04 in NNE 4.6 mph 6.9 mph 50 % 0.00 in
07:56 50.1 °F 31.2 °F 30.04 in North 4.3 mph 8.1 mph 48 % 0.00 in
08:06 50.4 °F 31.4 °F 30.04 in North 4.9 mph 6.9 mph 48 % 0.00 in
08:11 50.3 °F 31.3 °F 30.04 in NNE 2.7 mph 5.8 mph 48 % 0.00 in
08:16 50.3 °F 31.8 °F 30.05 in North 1.9 mph 5.8 mph 49 % 0.00 in
08:22 50.3 °F 31.8 °F 30.05 in NE 3.5 mph 6.9 mph 49 % 0.00 in
08:27 50.3 °F 32.4 °F 30.05 in NNE 2.4 mph 6.9 mph 50 % 0.00 in
08:32 50.5 °F 32.5 °F 30.05 in NNE 6.7 mph 11.5 mph 50 % 0.00 in
08:37 50.5 °F 34.0 °F 30.05 in North 2.8 mph 3.5 mph 53 % 0.00 in
08:42 50.7 °F 34.2 °F 30.04 in NE 1.5 mph 3.5 mph 53 % 0.00 in
08:47 50.9 °F 33.9 °F 30.04 in North 4.0 mph 6.0 mph 52 % 0.00 in
08:52 51.0 °F 32.5 °F 30.04 in NE 2.2 mph 5.0 mph 49 % 0.00 in
08:57 51.2 °F 32.2 °F 30.04 in NNE 2.6 mph 3.5 mph 48 % 0.00 in
09:02 51.4 °F 31.8 °F 30.04 in NNE 5.8 mph 8.1 mph 47 % 0.00 in
09:07 51.6 °F 33.6 °F 30.04 in NNE 2.7 mph 3.5 mph 50 % 0.00 in
09:13 51.9 °F 32.8 °F 30.05 in NE 2.6 mph 6.9 mph 48 % 0.00 in
09:18 52.4 °F 32.2 °F 30.05 in NNE 1.9 mph 5.8 mph 46 % 0.00 in
09:28 53.0 °F 34.3 °F 30.05 in NE 3.1 mph 4.6 mph 49 % 0.00 in
09:33 53.5 °F 35.8 °F 30.05 in ENE 3.8 mph 6.9 mph 51 % 0.00 in
09:43 54.8 °F 34.9 °F 30.05 in NE 2.2 mph 3.5 mph 47 % 0.00 in
09:48 54.9 °F 32.8 °F 30.05 in ENE 4.5 mph 7.0 mph 43 % 0.00 in
09:53 54.3 °F 31.7 °F 30.05 in ENE 4.9 mph 6.0 mph 42 % 0.00 in
09:58 53.9 °F 31.9 °F 30.06 in ENE 3.9 mph 8.0 mph 43 % 0.00 in
10:04 53.9 °F 33.6 °F 30.06 in ENE 2.1 mph 4.6 mph 46 % 0.00 in
10:09 54.6 °F 33.1 °F 30.05 in NNE 3.8 mph 7.0 mph 44 % 0.00 in
10:14 54.9 °F 32.2 °F 30.05 in ENE 4.7 mph 7.0 mph 42 % 0.00 in
10:19 54.6 °F 31.3 °F 30.05 in East 5.0 mph 8.1 mph 41 % 0.00 in
10:24 54.4 °F 32.9 °F 30.05 in NE 2.9 mph 5.8 mph 44 % 0.00 in
10:29 54.8 °F 32.1 °F 30.05 in NE 3.4 mph 8.1 mph 42 % 0.00 in
10:39 55.9 °F 30.6 °F 30.05 in ENE 3.6 mph 3.6 mph 38 % 0.00 in
10:44 55.6 °F 32.8 °F 30.04 in ENE 4.1 mph 6.0 mph 42 % 0.00 in
10:49 55.9 °F 31.3 °F 30.04 in ENE 4.5 mph 9.0 mph 39 % 0.00 in
10:55 55.8 °F 33.0 °F 30.05 in ENE 3.1 mph 9.2 mph 42 % 0.00 in
11:00 55.8 °F 32.4 °F 30.04 in East 2.6 mph 5.8 mph 41 % 0.00 in
11:05 55.4 °F 31.5 °F 30.04 in ENE 3.1 mph 6.0 mph 40 % 0.00 in
11:10 55.1 °F 31.8 °F 30.04 in East 3.2 mph 6.0 mph 41 % 0.00 in
11:15 55.1 °F 31.2 °F 30.04 in ENE 2.7 mph 6.0 mph 40 % 0.00 in
11:20 55.4 °F 32.7 °F 30.04 in East 2.6 mph 6.0 mph 42 % 0.00 in
11:25 55.9 °F 32.5 °F 30.04 in East 2.6 mph 5.8 mph 41 % 0.00 in
11:30 56.5 °F 33.1 °F 30.04 in East 3.1 mph 5.0 mph 41 % 0.00 in
11:35 57.3 °F 35.6 °F 30.04 in East 3.2 mph 5.0 mph 44 % 0.00 in
11:40 58.0 °F 35.0 °F 30.04 in ENE 2.6 mph 4.6 mph 42 % 0.00 in
11:51 58.2 °F 29.9 °F 30.05 in East 4.0 mph 6.0 mph 34 % 0.00 in
11:56 58.2 °F 29.9 °F 30.05 in SE 2.3 mph 5.8 mph 34 % 0.00 in
12:01 58.6 °F 29.6 °F 30.05 in SSE 2.0 mph 5.0 mph 33 % 0.00 in
12:06 58.8 °F 30.5 °F 30.04 in ESE 2.1 mph 3.5 mph 34 % 0.00 in
12:11 58.7 °F 28.1 °F 30.04 in East 1.4 mph 3.5 mph 31 % 0.00 in
12:16 58.8 °F 29.0 °F 30.05 in East 1.1 mph 4.6 mph 32 % 0.00 in
12:21 59.1 °F 30.0 °F 30.05 in SE 0.5 mph 3.5 mph 33 % 0.00 in
12:26 59.7 °F 28.2 °F 30.05 in East 1.7 mph 4.6 mph 30 % 0.00 in
12:31 59.8 °F 27.4 °F 30.04 in ENE 0.5 mph 2.3 mph 29 % 0.00 in
12:37 59.8 °F 29.1 °F 30.03 in East 0.9 mph 4.6 mph 31 % 0.00 in
12:42 59.6 °F 30.4 °F 30.04 in East 1.5 mph 3.5 mph 33 % 0.00 in
12:47 59.2 °F 29.3 °F 30.03 in NE 1.9 mph 4.6 mph 32 % 0.00 in
12:52 58.6 °F 30.3 °F 30.03 in ENE 2.9 mph 4.6 mph 34 % 0.00 in
12:57 57.9 °F 28.9 °F 30.03 in ENE 3.6 mph 6.9 mph 33 % 0.00 in
13:02 57.4 °F 31.3 °F 30.02 in ENE 2.1 mph 4.0 mph 37 % 0.00 in
13:07 57.3 °F 31.2 °F 30.02 in East 0.5 mph 2.0 mph 37 % 0.00 in
13:12 57.2 °F 31.1 °F 30.02 in East 0.6 mph 1.2 mph 37 % 0.00 in
13:17 57.4 °F 30.6 °F 30.02 in ENE 2.5 mph 4.6 mph 36 % 0.00 in
13:22 57.6 °F 30.8 °F 30.02 in NE 1.6 mph 3.5 mph 36 % 0.00 in
13:28 57.9 °F 31.8 °F 30.02 in NE 3.3 mph 4.6 mph 37 % 0.00 in
13:33 57.9 °F 28.2 °F 30.01 in ENE 2.0 mph 4.0 mph 32 % 0.00 in
13:38 58.1 °F 31.9 °F 30.01 in ENE 2.3 mph 3.5 mph 37 % 0.00 in
13:43 58.4 °F 29.4 °F 30.01 in East 2.0 mph 3.5 mph 33 % 0.00 in
13:48 58.7 °F 29.6 °F 30.01 in SE 1.9 mph 4.0 mph 33 % 0.00 in
13:53 58.9 °F 29.1 °F 30.01 in SE 0.4 mph 2.3 mph 32 % 0.00 in
13:58 59.1 °F 30.0 °F 30.00 in SE 0.8 mph 3.5 mph 33 % 0.00 in
14:03 59.1 °F 27.7 °F 30.00 in ESE 2.7 mph 5.0 mph 30 % 0.00 in
14:08 58.8 °F 36.9 °F 30.01 in South 4.8 mph 4.8 mph 44 % 0.00 in
14:14 58.4 °F 38.2 °F 30.00 in South 5.8 mph 9.2 mph 47 % 0.00 in
14:19 57.9 °F 37.2 °F 30.01 in South 3.8 mph 6.9 mph 46 % 0.00 in
14:24 57.5 °F 37.9 °F 30.01 in ESE 5.8 mph 10.4 mph 48 % 0.00 in
14:29 57.3 °F 38.8 °F 30.00 in SSE 4.9 mph 10.4 mph 50 % 0.00 in
14:34 57.2 °F 38.7 °F 30.01 in SE 7.5 mph 10.4 mph 50 % 0.00 in
14:44 56.6 °F 38.2 °F 30.01 in SSE 2.4 mph 8.1 mph 50 % 0.00 in
14:49 56.2 °F 38.3 °F 30.01 in SSW 3.3 mph 5.0 mph 51 % 0.00 in
14:54 55.9 °F 37.5 °F 30.01 in SSW 1.5 mph 9.2 mph 50 % 0.00 in
14:59 55.7 °F 38.3 °F 30.01 in SE 5.5 mph 13.8 mph 52 % 0.00 in
15:05 55.4 °F 39.0 °F 30.01 in SSE 4.4 mph 6.9 mph 54 % 0.00 in
15:10 55.0 °F 39.1 °F 30.01 in South 2.9 mph 5.8 mph 55 % 0.00 in
15:15 54.8 °F 38.9 °F 30.01 in SSE 4.3 mph 6.9 mph 55 % 0.00 in
15:20 54.8 °F 39.4 °F 30.01 in SSW 2.5 mph 6.9 mph 56 % 0.00 in
15:25 54.8 °F 38.9 °F 30.01 in South 3.0 mph 4.6 mph 55 % 0.00 in
15:30 54.8 °F 39.4 °F 30.01 in SSW 3.8 mph 6.9 mph 56 % 0.00 in
15:35 54.7 °F 38.8 °F 30.01 in SSW 3.0 mph 4.6 mph 55 % 0.00 in
15:40 54.6 °F 38.7 °F 30.01 in SE 1.4 mph 5.0 mph 55 % 0.00 in
15:45 54.3 °F 38.5 °F 30.01 in SSE 3.1 mph 5.8 mph 55 % 0.00 in
15:50 54.2 °F 38.8 °F 30.01 in South 2.5 mph 5.8 mph 56 % 0.00 in
15:56 54.2 °F 38.4 °F 30.01 in SE 4.4 mph 9.2 mph 55 % 0.00 in
16:01 54.1 °F 38.3 °F 30.01 in SSW 5.2 mph 8.1 mph 55 % 0.00 in
16:06 53.9 °F 38.6 °F 30.01 in SSE 0.9 mph 6.9 mph 56 % 0.00 in
16:11 54.1 °F 38.3 °F 30.01 in SSW 3.7 mph 6.0 mph 55 % 0.00 in
16:16 54.1 °F 37.3 °F 30.01 in South 4.2 mph 8.1 mph 53 % 0.00 in
16:21 54.1 °F 38.3 °F 30.00 in SSW 3.6 mph 4.6 mph 55 % 0.00 in
16:26 54.2 °F 37.9 °F 30.00 in SSW 3.2 mph 4.6 mph 54 % 0.00 in
16:31 54.4 °F 37.1 °F 30.00 in SSW 2.6 mph 5.8 mph 52 % 0.00 in
16:36 54.3 °F 36.5 °F 30.00 in SSW 4.7 mph 9.2 mph 51 % 0.00 in
16:41 54.0 °F 36.8 °F 30.00 in SE 3.6 mph 10.0 mph 52 % 0.00 in
16:47 53.7 °F 36.5 °F 30.00 in SE 3.7 mph 6.9 mph 52 % 0.00 in
16:52 53.4 °F 35.7 °F 30.00 in SSW 2.5 mph 11.5 mph 51 % 0.00 in
16:57 53.4 °F 36.7 °F 30.00 in SE 2.8 mph 8.1 mph 53 % 0.00 in
17:02 53.4 °F 36.7 °F 30.00 in SSW 2.8 mph 5.8 mph 53 % 0.00 in
17:07 53.5 °F 36.8 °F 30.00 in SE 2.5 mph 7.0 mph 53 % 0.00 in
17:12 53.4 °F 36.2 °F 30.00 in SE 1.8 mph 6.0 mph 52 % 0.00 in
17:17 53.5 °F 34.8 °F 30.00 in SSE 6.7 mph 10.4 mph 49 % 0.00 in
17:22 53.5 °F 35.3 °F 30.00 in SSE 2.9 mph 5.0 mph 50 % 0.00 in
17:27 53.5 °F 36.3 °F 30.00 in SSW 3.4 mph 5.0 mph 52 % 0.00 in
17:32 53.7 °F 36.5 °F 30.00 in SW 0.5 mph 3.5 mph 52 % 0.00 in
17:38 53.8 °F 36.6 °F 30.01 in South 0.4 mph 3.5 mph 52 % 0.00 in
17:43 53.9 °F 36.7 °F 30.00 in SSE 2.7 mph 4.6 mph 52 % 0.00 in
17:48 53.9 °F 36.2 °F 30.00 in SSE 1.4 mph 4.6 mph 51 % 0.00 in
17:53 53.7 °F 34.5 °F 30.00 in South 2.3 mph 4.6 mph 48 % 0.00 in
17:58 53.7 °F 35.0 °F 30.00 in South 0.8 mph 3.5 mph 49 % 0.00 in
18:03 53.6 °F 35.9 °F 30.00 in South 2.0 mph 3.5 mph 51 % 0.00 in
18:08 53.6 °F 34.9 °F 30.00 in SSW 1.7 mph 3.5 mph 49 % 0.00 in
18:13 53.4 °F 34.7 °F 30.01 in SE 0.5 mph 2.3 mph 49 % 0.00 in
18:18 53.3 °F 34.6 °F 30.01 in South 0.8 mph 3.5 mph 49 % 0.00 in
18:23 53.2 °F 35.0 °F 30.01 in SE 0.8 mph 2.3 mph 50 % 0.00 in
18:29 53.1 °F 34.9 °F 30.01 in SSW 1.7 mph 2.3 mph 50 % 0.00 in
18:34 53.1 °F 34.4 °F 30.01 in SW 0.9 mph 3.5 mph 49 % 0.00 in
18:39 53.1 °F 34.4 °F 30.01 in SSE 1.4 mph 4.0 mph 49 % 0.00 in
18:44 52.9 °F 33.7 °F 30.01 in SE 3.2 mph 5.0 mph 48 % 0.00 in
18:49 52.7 °F 33.5 °F 30.02 in SSE 0.7 mph 2.0 mph 48 % 0.00 in
18:54 52.6 °F 34.5 °F 30.02 in SSE 0.5 mph 1.2 mph 50 % 0.00 in
19:04 52.4 °F 35.3 °F 30.02 in Calm     52 % 0.00 in
19:09 52.4 °F 34.8 °F 30.02 in SSE 1.0 mph 3.5 mph 51 % 0.00 in
19:14 52.3 °F 34.2 °F 30.02 in SSE 0.2 mph 2.3 mph 50 % 0.00 in
19:20 52.2 °F 34.1 °F 30.02 in SSE 0.6 mph 2.3 mph 50 % 0.00 in
19:25 52.1 °F 34.0 °F 30.02 in South 0.9 mph 2.3 mph 50 % 0.00 in
19:30 52.0 °F 34.4 °F 30.02 in South 0.2 mph 1.2 mph 51 % 0.00 in
19:35 51.9 °F 34.3 °F 30.02 in SSW 0.7 mph 3.5 mph 51 % 0.00 in
19:40 51.8 °F 34.2 °F 30.02 in SSW 2.1 mph 3.5 mph 51 % 0.00 in
19:45 51.7 °F 34.1 °F 30.02 in WSW 1.6 mph 4.0 mph 51 % 0.00 in
19:50 51.6 °F 34.5 °F 30.02 in SW 0.4 mph 2.3 mph 52 % 0.00 in
19:55 51.4 °F 34.3 °F 30.02 in SW 0.2 mph 1.2 mph 52 % 0.00 in
20:00 51.3 °F 34.3 °F 30.02 in South 0.6 mph 3.5 mph 52 % 0.00 in
20:11 51.0 °F 34.5 °F 30.02 in SW 1.7 mph 3.5 mph 53 % 0.00 in
20:16 51.0 °F 34.9 °F 30.02 in SW 1.6 mph 2.0 mph 54 % 0.00 in
20:21 50.9 °F 34.8 °F 30.02 in SW 1.9 mph 3.5 mph 54 % 0.00 in
20:26 50.8 °F 34.7 °F 30.03 in SW 0.2 mph 1.2 mph 54 % 0.00 in
20:31 50.8 °F 35.2 °F 30.03 in SW 0.3 mph 1.2 mph 55 % 0.00 in
20:36 50.7 °F 35.1 °F 30.03 in SSW 1.0 mph 3.5 mph 55 % 0.00 in
20:41 50.6 °F 35.5 °F 30.03 in SSW 0.3 mph 2.0 mph 56 % 0.00 in
20:46 50.5 °F 34.9 °F 30.03 in SSE 1.3 mph 4.6 mph 55 % 0.00 in
20:51 50.4 °F 35.3 °F 30.03 in South 1.1 mph 2.3 mph 56 % 0.00 in
20:56 50.4 °F 35.3 °F 30.03 in South 0.3 mph 3.5 mph 56 % 0.00 in
21:02 50.3 °F 35.6 °F 30.04 in South 0.1 mph 1.2 mph 57 % 0.00 in
21:07 50.3 °F 36.1 °F 30.03 in Calm     58 % 0.00 in
21:12 50.3 °F 36.1 °F 30.03 in South 0.2 mph 1.2 mph 58 % 0.00 in
21:17 50.2 °F 36.4 °F 30.03 in SE 1.9 mph 3.5 mph 59 % 0.00 in
21:22 50.1 °F 35.9 °F 30.03 in SE 0.2 mph 2.3 mph 58 % 0.00 in
21:27 50.1 °F 35.9 °F 30.04 in SE 0.2 mph 2.3 mph 58 % 0.00 in
21:32 50.1 °F 36.3 °F 30.03 in Calm   1.2 mph 59 % 0.00 in
21:37 50.0 °F 36.7 °F 30.03 in Calm     60 % 0.00 in
21:42 50.0 °F 36.2 °F 30.04 in Calm     59 % 0.00 in
21:47 49.9 °F 36.1 °F 30.04 in Calm     59 % 0.00 in
21:53 49.9 °F 36.6 °F 30.03 in SE 1.7 mph 3.5 mph 60 % 0.00 in
21:58 49.9 °F 36.1 °F 30.03 in SE 1.4 mph 3.5 mph 59 % 0.00 in
22:08 49.8 °F 36.9 °F 30.04 in Calm     61 % 0.00 in
22:13 49.8 °F 37.3 °F 30.03 in Calm     62 % 0.00 in
22:18 49.7 °F 36.8 °F 30.04 in Calm     61 % 0.00 in
22:23 49.7 °F 37.2 °F 30.04 in Calm     62 % 0.00 in
22:28 49.7 °F 37.6 °F 30.04 in Calm     63 % 0.00 in
22:33 49.7 °F 37.6 °F 30.05 in Calm     63 % 0.00 in
22:38 49.6 °F 37.5 °F 30.04 in Calm   1.2 mph 63 % 0.00 in
22:44 49.6 °F 37.5 °F 30.05 in Calm     63 % 0.00 in
22:49 49.6 °F 37.5 °F 30.05 in Calm   1.0 mph 63 % 0.00 in
22:54 49.6 °F 37.5 °F 30.04 in SE 1.4 mph 2.3 mph 63 % 0.00 in
22:59 49.5 °F 38.2 °F 30.04 in SE 0.1 mph 1.0 mph 65 % 0.00 in
23:04 49.5 °F 38.6 °F 30.03 in Calm     66 % 0.00 in
23:09 49.4 °F 38.1 °F 30.03 in Calm   1.0 mph 65 % 0.00 in
23:14 49.4 °F 38.1 °F 30.04 in Calm     65 % 0.00 in
23:29 49.3 °F 37.6 °F 30.04 in Calm   1.2 mph 64 % 0.00 in
23:35 49.2 °F 38.7 °F 30.03 in Calm     67 % 0.00 in
23:40 49.1 °F 38.6 °F 30.03 in Calm   1.2 mph 67 % 0.00 in
23:45 49.1 °F 38.2 °F 30.03 in Calm     66 % 0.00 in
23:50 49.1 °F 37.8 °F 30.04 in Calm     65 % 0.00 in
23:55 49.1 °F 38.2 °F 30.04 in Calm     66 % 0.00 in
Crab Meadow Weather
Compliments of Weather Underground - 3 mb

Script developed by  Jim McMurry - jmcmurry@mwt.net Adapted for the template by  Wim van der Kuil - Leuven-Template.eu

Clouds: Mostly sunny and mostly clear indicate the same amount of cloud coverage - about 25 percent. Mostly sunny is used during the daytime, and mostly clear is used at night when there is no sun.